When you browse on this site, cookies collect data to enhance your experience and personalize the content and advertising you see.
Visit our Privacy Policy to learn more. By continuing to use the site, you agree to this use of cookies and data.

Hourly Weather Speshnevka

Today, 14 July, Tuesday

Time Temperature Precipitation Wind Pressure Humidity
00:00 +18°C° 0 mm 2 mps 739 mmHg 96%
01:00 +18°C° 0.4 mm 2 mps 739 mmHg 96%
02:00 +17°C° 0.4 mm 3 mps 738 mmHg 95%
03:00 +17°C° 0 mm 2 mps 739 mmHg 95%
04:00 +17°C° 1.3 mm 3 mps 738 mmHg 96%
05:00 +17°C° 1.3 mm 4 mps 738 mmHg 96%
06:00 +16°C° 1.3 mm 5 mps 737 mmHg 96%
07:00 +16°C° 0.9 mm 5 mps 737 mmHg 96%
08:00 +16°C° 0.9 mm 6 mps 737 mmHg 95%
09:00 +17°C° 0.9 mm 6 mps 736 mmHg 95%
10:00 +17°C° 2.9 mm 7 mps 736 mmHg 95%
11:00 +17°C° 2.9 mm 7 mps 735 mmHg 95%
12:00 +17°C° 2.9 mm 8 mps 735 mmHg 95%
13:00 +17°C° 5.8 mm 7 mps 734 mmHg 96%
14:00 +17°C° 5.8 mm 6 mps 734 mmHg 97%
15:00 +19°C° 5.8 mm 6 mps 734 mmHg 97%
16:00 +19°C° 1.4 mm 5 mps 733 mmHg 96%
17:00 +20°C° 1.4 mm 4 mps 733 mmHg 95%
18:00 +20°C° 1.4 mm 4 mps 732 mmHg 94%
19:00 +19°C° 0.1 mm 4 mps 732 mmHg 94%
20:00 +17°C° 0.1 mm 5 mps 732 mmHg 95%
21:00 +15°C° 0.1 mm 5 mps 732 mmHg 96%
22:00 +15°C° 0 mm 6 mps 732 mmHg 95%
23:00 +15°C° 0 mm 6 mps 732 mmHg 95%

Tomorrow, 15 July, Wednesday

Time Temperature Precipitation Wind Pressure Humidity
00:00 +14°C° 0 mm 6 mps 732 mmHg 95%
01:00 +14°C° 0 mm 7 mps 732 mmHg 94%
02:00 +14°C° 0 mm 7 mps 733 mmHg 94%
03:00 +14°C° 0 mm 7 mps 733 mmHg 93%
04:00 +14°C° 0.1 mm 7 mps 733 mmHg 93%
05:00 +14°C° 0.1 mm 7 mps 733 mmHg 93%
06:00 +14°C° 0.1 mm 7 mps 733 mmHg 93%
07:00 +12°C° 0.2 mm 7 mps 733 mmHg 93%
08:00 +12°C° 0.2 mm 8 mps 733 mmHg 92%
09:00 +11°C° 0.2 mm 8 mps 733 mmHg 92%
10:00 +11°C° 0.3 mm 8 mps 734 mmHg 92%
11:00 +11°C° 0.3 mm 9 mps 734 mmHg 91%
12:00 +11°C° 0.3 mm 10 mps 734 mmHg 91%
13:00 +11°C° 0.1 mm 10 mps 735 mmHg 90%
14:00 +11°C° 0.1 mm 10 mps 735 mmHg 89%
15:00 +11°C° 0.1 mm 10 mps 736 mmHg 89%
16:00 +10°C° 0.2 mm 9 mps 736 mmHg 89%
17:00 +10°C° 0.2 mm 9 mps 736 mmHg 90%
18:00 +10°C° 0.2 mm 9 mps 736 mmHg 91%
19:00 +10°C° 0.1 mm 9 mps 737 mmHg 91%
20:00 +10°C° 0.1 mm 8 mps 737 mmHg 92%
21:00 +10°C° 0.1 mm 8 mps 737 mmHg 92%
22:00 +10°C° 0.1 mm 8 mps 737 mmHg 93%
23:00 +10°C° 0.1 mm 7 mps 738 mmHg 93%

Day after tomorrow, 16 July, Thursday

Time Temperature Precipitation Wind Pressure Humidity
00:00 +10°C° 0.1 mm 7 mps 738 mmHg 94%
01:00 +10°C° 0 mm 7 mps 738 mmHg 94%
02:00 +10°C° 0 mm 7 mps 738 mmHg 94%
03:00 +10°C° 0 mm 6 mps 739 mmHg 94%
04:00 +10°C° 0 mm 6 mps 739 mmHg 94%
05:00 +10°C° 0 mm 6 mps 739 mmHg 94%
06:00 +10°C° 0 mm 6 mps 739 mmHg 94%
07:00 +11°C° 0 mm 6 mps 739 mmHg 93%
08:00 +11°C° 0 mm 6 mps 740 mmHg 91%
09:00 +13°C° 0 mm 6 mps 740 mmHg 90%
10:00 +13°C° 0 mm 6 mps 740 mmHg 88%
11:00 +14°C° 0 mm 6 mps 740 mmHg 85%
12:00 +15°C° 0 mm 6 mps 741 mmHg 83%
13:00 +15°C° 0 mm 6 mps 741 mmHg 82%
14:00 +16°C° 0 mm 6 mps 741 mmHg 81%
15:00 +16°C° 0 mm 6 mps 741 mmHg 80%
16:00 +17°C° 0.1 mm 5 mps 741 mmHg 80%
17:00 +18°C° 0.1 mm 4 mps 741 mmHg 79%
18:00 +18°C° 0.1 mm 4 mps 741 mmHg 79%
19:00 +17°C° 0.1 mm 3 mps 741 mmHg 83%
20:00 +16°C° 0.1 mm 3 mps 741 mmHg 86%
21:00 +15°C° 0.1 mm 2 mps 741 mmHg 90%
22:00 +15°C° 0 mm 2 mps 742 mmHg 91%
23:00 +14°C° 0 mm 2 mps 742 mmHg 92%

17 July, Friday

Time Temperature Precipitation Wind Pressure Humidity
00:00 +14°C° 0 mm 2 mps 742 mmHg 92%
01:00 +12°C° 0 mm 3 mps 742 mmHg 93%
02:00 +12°C° 0 mm 3 mps 742 mmHg 94%
03:00 +12°C° 0 mm 3 mps 742 mmHg 94%
04:00 +12°C° 0 mm 3 mps 742 mmHg 94%
05:00 +12°C° 0 mm 3 mps 742 mmHg 94%
06:00 +13°C° 0 mm 3 mps 742 mmHg 93%
07:00 +14°C° 0 mm 3 mps 742 mmHg 90%
08:00 +17°C° 0 mm 3 mps 743 mmHg 87%
09:00 +18°C° 0 mm 3 mps 743 mmHg 83%
10:00 +19°C° 0 mm 3 mps 743 mmHg 78%
11:00 +21°C° 0 mm 3 mps 743 mmHg 73%
12:00 +22°C° 0 mm 4 mps 743 mmHg 68%
13:00 +22°C° 0.1 mm 4 mps 743 mmHg 67%
14:00 +22°C° 0.1 mm 4 mps 743 mmHg 67%
15:00 +23°C° 0.1 mm 4 mps 743 mmHg 66%
16:00 +22°C° 0.1 mm 4 mps 743 mmHg 69%
17:00 +22°C° 0.1 mm 3 mps 743 mmHg 72%
18:00 +22°C° 0.1 mm 3 mps 743 mmHg 75%
19:00 +21°C° 0 mm 2 mps 743 mmHg 78%
20:00 +19°C° 0 mm 2 mps 743 mmHg 82%
21:00 +18°C° 0 mm 2 mps 744 mmHg 85%
22:00 +17°C° 0 mm 2 mps 744 mmHg 86%
23:00 +17°C° 0 mm 2 mps 744 mmHg 88%

18 July, Saturday

Time Temperature Precipitation Wind Pressure Humidity
00:00 +16°C° 0 mm 2 mps 744 mmHg 89%
01:00 +16°C° 0 mm 2 mps 744 mmHg 90%
02:00 +16°C° 0 mm 2 mps 744 mmHg 90%
03:00 +15°C° 0 mm 2 mps 744 mmHg 91%
04:00 +15°C° 0 mm 2 mps 745 mmHg 91%
05:00 +16°C° 0 mm 2 mps 745 mmHg 90%
06:00 +16°C° 0 mm 1 mps 745 mmHg 90%
07:00 +17°C° 0 mm 2 mps 745 mmHg 85%
08:00 +19°C° 0 mm 2 mps 746 mmHg 80%
09:00 +20°C° 0 mm 2 mps 746 mmHg 75%
10:00 +21°C° 0 mm 2 mps 746 mmHg 71%
11:00 +23°C° 0 mm 2 mps 746 mmHg 67%
12:00 +24°C° 0 mm 2 mps 746 mmHg 63%
13:00 +24°C° 0 mm 2 mps 746 mmHg 63%
14:00 +24°C° 0 mm 3 mps 746 mmHg 62%
15:00 +25°C° 0 mm 3 mps 746 mmHg 62%
16:00 +24°C° 0 mm 3 mps 746 mmHg 65%
17:00 +24°C° 0 mm 2 mps 746 mmHg 67%
18:00 +24°C° 0 mm 2 mps 746 mmHg 70%
19:00 +21°C° 0 mm 2 mps 746 mmHg 75%
20:00 +19°C° 0 mm 2 mps 746 mmHg 79%
21:00 +18°C° 0 mm 2 mps 746 mmHg 83%
22:00 +17°C° 0 mm 2 mps 746 mmHg 85%
23:00 +16°C° 0 mm 2 mps 746 mmHg 86%

19 July, Sunday

Time Temperature Precipitation Wind Pressure Humidity
00:00 +16°C° 0 mm 1 mps 746 mmHg 87%
01:00 +16°C° 0 mm 1 mps 746 mmHg 88%
02:00 +15°C° 0 mm 2 mps 746 mmHg 89%
03:00 +15°C° 0 mm 2 mps 746 mmHg 90%
04:00 +15°C° 0 mm 2 mps 746 mmHg 90%
05:00 +15°C° 0 mm 2 mps 746 mmHg 91%
06:00 +16°C° 0 mm 2 mps 746 mmHg 91%
07:00 +17°C° 0 mm 2 mps 746 mmHg 85%
08:00 +19°C° 0 mm 2 mps 746 mmHg 80%
09:00 +20°C° 0 mm 2 mps 746 mmHg 74%
10:00 +21°C° 0 mm 3 mps 746 mmHg 69%
11:00 +22°C° 0 mm 3 mps 746 mmHg 63%
12:00 +24°C° 0 mm 3 mps 746 mmHg 58%
13:00 +24°C° 0 mm 3 mps 745 mmHg 57%
14:00 +24°C° 0 mm 3 mps 745 mmHg 56%
15:00 +24°C° 0 mm 3 mps 745 mmHg 55%
16:00 +24°C° 0 mm 3 mps 745 mmHg 59%
17:00 +24°C° 0 mm 3 mps 744 mmHg 63%
18:00 +23°C° 0 mm 2 mps 744 mmHg 67%
19:00 +21°C° 0 mm 2 mps 744 mmHg 68%
20:00 +19°C° 0 mm 2 mps 744 mmHg 69%
21:00 +17°C° 0 mm 2 mps 744 mmHg 71%
22:00 +17°C° 0 mm 2 mps 743 mmHg 72%
23:00 +16°C° 0 mm 2 mps 743 mmHg 73%
Show more